This demonstration page uses our WeatherBlox Daily Observations layout. Learn more.

36.17497, -115.13722

Hourly Observations for April 12, 2015

Temp ( °F °C ) Dew Point ( °F °C ) Humidity (%) Winds ( mph kmh ) Pressure ( in mb ) Visibility ( mi km ) Precip ( " mm )
12:53 am 00:53 Clear 64 17.8 17 -8.3 16 16 VRB 3 6 29.84 1010 10 16.0934 0 0
1:53 am 01:53 Clear 65 18.3 19 -7.2 17 17 WNW 3 6 29.83 1010 10 16.0934 0 0
2:53 am 02:53 Clear 64 17.8 18 -7.8 17 17 WNW 6 9 29.83 1010 10 16.0934 0 0
3:53 am 03:53 Clear 61 16.1 15 -9.4 17 17 N 3 6 29.84 1011 10 16.0934 0 0
4:53 am 04:53 Clear 62 16.7 13 -10.6 14 14 N 10 17 29.85 1011 10 16.0934 0 0
5:53 am 05:53 Clear 63 17.2 13 -10.6 14 14 NNW 13 20 29.88 1012 10 16.0934 0 0
6:53 am 06:53 Sunny 64 17.8 13 -10.6 13 13 NE 10 17 29.91 1013 10 16.0934 0 0
7:53 am 07:53 Sunny 66 18.9 14 -10 13 13 N 14 22 29.95 1014 10 16.0934 0 0
8:53 am 08:53 Sunny 73 22.8 12 -11.1 9 9 N 9 15 29.96 1015 10 16.0934 0 0
9:53 am 09:53 Sunny 75 23.9 11 -11.7 8 8 N 8 13 29.98 1015 10 16.0934 0 0
10:53 am 10:53 Sunny 77 25 11 -11.7 8 8 ENE 7 11 29.97 1015 10 16.0934 0 0
11:53 am 11:53 Sunny 79 26.1 12 -11.1 8 8 ENE 5 7 29.96 1015 10 16.0934 0 0
12:53 pm 12:53 Sunny 80 26.7 11 -11.7 7 7 NW 5 7 29.95 1014 10 16.0934 0 0
1:53 pm 13:53 Sunny 81 27.2 10 -12.2 7 7 VRB 3 6 29.93 1013 10 16.0934 0 0
2:53 pm 14:53 Sunny 84 28.9 10 -12.2 6 6 N 9 15 29.9 1013 10 16.0934 0 0
3:53 pm 15:53 Sunny 83 28.3 5 -15 5 5 NNW 8 13 29.89 1012 10 16.0934 0 0
4:53 pm 16:53 Sunny 84 28.9 1 -17.2 4 4 Calm 29.88 1012 10 16.0934 0 0
5:53 pm 17:53 Sunny 84 28.9 5 -15 5 5 NNW 9 15 29.87 1011 10 16.0934 0 0
6:53 pm 18:53 Sunny 81 27.2 8 -13.3 6 6 SE 3 6 29.88 1012 10 16.0934 0 0
7:53 pm 19:53 Clear 79 26.1 10 -12.2 7 7 SSE 3 6 29.9 1012 10 16.0934 0 0
8:53 pm 20:53 Clear 77 25 14 -10 9 9 Calm 29.92 1013 10 16.0934 0 0
9:53 pm 21:53 Clear 71 21.7 17 -8.3 13 13 NNW 7 11 29.94 1014 10 16.0934 0 0
10:53 pm 22:53 Clear 69 20.6 17 -8.3 14 14 N 7 11 29.95 1014 10 16.0934 0 0
11:53 pm 23:53 Clear 67 19.4 18 -7.8 15 15 WNW 3 6 29.96 1015 10 16.0934 0 0

Powered by AerisWeather